BEE1301 EGTE-EGLC

Flight info

Callsign BEE1301
Flight time N/A
Altitude 23000
Route DCT GIBSO N16 AVANT AVANT1C
Aircraft DH8D/M-SDE2E3FGRY/H

Departure

Time 2026-04-29 13:06
Airport Exeter International Airport (EGTE)

Arrival

Time N/A
Airport London City Airport (EGLC)
Time Latitude Longitude Altitude Speed Heading
2026-04-29 12:18 50.73127 -3.41771 100 ft 0 kts 130°
2026-04-29 12:53 50.73129 -3.41775 100 ft 2 kts 131°
2026-04-29 12:53 50.73139 -3.41792 99 ft 2 kts 132°
2026-04-29 12:54 50.73149 -3.41811 99 ft 2 kts 131°
2026-04-29 12:54 50.73158 -3.41826 99 ft 1 kts 132°
2026-04-29 12:54 50.73167 -3.41833 99 ft 1 kts 189°
2026-04-29 12:54 50.73176 -3.41824 99 ft 2 kts 242°
2026-04-29 12:55 50.73182 -3.41808 99 ft 0 kts 238°
2026-04-29 12:55 50.73183 -3.41806 99 ft 0 kts 238°
2026-04-29 12:58 50.73180 -3.41813 99 ft 2 kts 238°
2026-04-29 12:58 50.73164 -3.41855 99 ft 6 kts 238°
2026-04-29 12:58 50.73135 -3.41929 100 ft 8 kts 240°
2026-04-29 12:59 50.73105 -3.42025 101 ft 10 kts 246°
2026-04-29 12:59 50.73072 -3.42132 101 ft 11 kts 241°
2026-04-29 12:59 50.73065 -3.42258 102 ft 12 kts 278°
2026-04-29 12:59 50.73069 -3.42395 102 ft 13 kts 272°
2026-04-29 13:00 50.73070 -3.42535 103 ft 11 kts 275°
2026-04-29 13:00 50.73076 -3.42598 103 ft 0 kts 282°
2026-04-29 13:01 50.73079 -3.42622 103 ft 4 kts 282°
2026-04-29 13:02 50.73101 -3.42672 103 ft 6 kts 347°
2026-04-29 13:02 50.73145 -3.42665 103 ft 5 kts 12°
2026-04-29 13:02 50.73183 -3.42650 102 ft 5 kts 15°
2026-04-29 13:02 50.73224 -3.42628 102 ft 6 kts 35°
2026-04-29 13:03 50.73244 -3.42570 102 ft 6 kts 75°
2026-04-29 13:03 50.73256 -3.42496 101 ft 0 kts 76°
2026-04-29 13:05 50.73270 -3.42399 101 ft 44 kts 77°
2026-04-29 13:05 50.73420 -3.41455 98 ft 125 kts 77°
2026-04-29 13:06 50.73630 -3.39972 461 ft 144 kts 78°
2026-04-29 13:06 50.73830 -3.38412 1141 ft 151 kts 79°
2026-04-29 13:06 50.74028 -3.36776 1888 ft 154 kts 79°
2026-04-29 13:06 50.74080 -3.35177 2719 ft 151 kts 94°
2026-04-29 13:07 50.73972 -3.33557 3410 ft 151 kts 95°
2026-04-29 13:07 50.73893 -3.31900 4018 ft 156 kts 94°
2026-04-29 13:07 50.73842 -3.30175 4639 ft 160 kts 93°
2026-04-29 13:07 50.73814 -3.28422 5267 ft 163 kts 92°
2026-04-29 13:08 50.73802 -3.26623 5865 ft 168 kts 92°
2026-04-29 13:08 50.73805 -3.24804 6505 ft 169 kts 92°
2026-04-29 13:08 50.73816 -3.22933 7126 ft 173 kts 92°
2026-04-29 13:08 50.73834 -3.21061 7745 ft 174 kts 92°
2026-04-29 13:09 50.73858 -3.19153 8354 ft 176 kts 91°
2026-04-29 13:09 50.73885 -3.17192 8951 ft 179 kts 91°
2026-04-29 13:09 50.73915 -3.15237 9550 ft 181 kts 91°
2026-04-29 13:09 50.73948 -3.13263 10166 ft 183 kts 91°
2026-04-29 13:10 50.73982 -3.11238 10746 ft 186 kts 91°
2026-04-29 13:10 50.74017 -3.09230 11362 ft 185 kts 92°
2026-04-29 13:10 50.74052 -3.07222 11919 ft 187 kts 92°
2026-04-29 13:10 50.74089 -3.05175 12482 ft 188 kts 92°
2026-04-29 13:11 50.74125 -3.03105 12989 ft 190 kts 92°
2026-04-29 13:11 50.74162 -3.01017 13480 ft 192 kts 92°
2026-04-29 13:11 50.74199 -2.98908 13940 ft 194 kts 92°
2026-04-29 13:11 50.74236 -2.96801 14451 ft 195 kts 92°
2026-04-29 13:12 50.74273 -2.94644 14948 ft 196 kts 92°
2026-04-29 13:12 50.74311 -2.92483 15429 ft 198 kts 92°
2026-04-29 13:12 50.74347 -2.90322 15852 ft 200 kts 92°
2026-04-29 13:12 50.74384 -2.88126 16267 ft 201 kts 93°
2026-04-29 13:13 50.74422 -2.85899 16712 ft 202 kts 93°
2026-04-29 13:13 50.74458 -2.83685 17075 ft 205 kts 93°
2026-04-29 13:13 50.74495 -2.81419 17491 ft 207 kts 93°
2026-04-29 13:13 50.74531 -2.79161 17893 ft 208 kts 93°
2026-04-29 13:14 50.74567 -2.76847 18291 ft 209 kts 94°
2026-04-29 13:14 50.74603 -2.74567 18644 ft 212 kts 93°
2026-04-29 13:14 50.74639 -2.72224 19003 ft 214 kts 93°
2026-04-29 13:14 50.74675 -2.69889 19360 ft 216 kts 93°
2026-04-29 13:15 50.74710 -2.67488 19693 ft 220 kts 94°
2026-04-29 13:15 50.74746 -2.65078 20048 ft 221 kts 94°
2026-04-29 13:15 50.74781 -2.62648 20350 ft 225 kts 94°
2026-04-29 13:15 50.74817 -2.60173 20672 ft 227 kts 94°
2026-04-29 13:16 50.74853 -2.57665 20993 ft 228 kts 94°
2026-04-29 13:16 50.74887 -2.55176 21263 ft 231 kts 94°
2026-04-29 13:16 50.74923 -2.52603 21540 ft 234 kts 93°
2026-04-29 13:16 50.74959 -2.50040 21810 ft 236 kts 94°
2026-04-29 13:17 50.75000 -2.47449 22106 ft 237 kts 94°
2026-04-29 13:17 50.75040 -2.44842 22359 ft 239 kts 94°
2026-04-29 13:17 50.75080 -2.42229 22627 ft 240 kts 94°
2026-04-29 13:17 50.75119 -2.39561 22834 ft 242 kts 93°
2026-04-29 13:18 50.75158 -2.36890 23057 ft 244 kts 93°
2026-04-29 13:18 50.75195 -2.34183 23140 ft 253 kts 94°
2026-04-29 13:18 50.75232 -2.31290 23165 ft 265 kts 94°
2026-04-29 13:18 50.75271 -2.28299 23164 ft 276 kts 94°
2026-04-29 13:19 50.75311 -2.25196 23162 ft 286 kts 94°
2026-04-29 13:19 50.75353 -2.21982 23168 ft 295 kts 93°
2026-04-29 13:19 50.75396 -2.18676 23168 ft 303 kts 93°
2026-04-29 13:19 50.75440 -2.15315 23158 ft 309 kts 93°
2026-04-29 13:20 50.75484 -2.11971 23160 ft 309 kts 93°
2026-04-29 13:20 50.75528 -2.08514 23171 ft 311 kts 93°
2026-04-29 13:20 50.75569 -2.05140 23165 ft 312 kts 92°
2026-04-29 13:20 50.75610 -2.01667 23171 ft 313 kts 93°
2026-04-29 13:21 50.75649 -1.98262 23173 ft 314 kts 93°
2026-04-29 13:21 50.75688 -1.94746 23168 ft 315 kts 92°
2026-04-29 13:21 50.75725 -1.91259 23165 ft 316 kts 93°
2026-04-29 13:21 50.75761 -1.87777 23167 ft 317 kts 93°
2026-04-29 13:22 50.75795 -1.84277 23165 ft 317 kts 92°
2026-04-29 13:22 50.75829 -1.80805 23169 ft 317 kts 92°
2026-04-29 13:22 50.75862 -1.77274 23165 ft 317 kts 92°
2026-04-29 13:22 50.75893 -1.73809 23165 ft 317 kts 92°
2026-04-29 13:23 50.75924 -1.70323 23172 ft 317 kts 92°
2026-04-29 13:23 50.75953 -1.66835 23176 ft 316 kts 92°
2026-04-29 13:23 50.75981 -1.63390 23174 ft 316 kts 92°
2026-04-29 13:23 50.76009 -1.59865 23174 ft 316 kts 92°
2026-04-29 13:24 50.76035 -1.56386 23173 ft 316 kts 92°
2026-04-29 13:24 50.76059 -1.52953 23173 ft 316 kts 92°
2026-04-29 13:24 50.76083 -1.49472 23176 ft 315 kts 92°
2026-04-29 13:24 50.76106 -1.46016 23171 ft 315 kts 92°
2026-04-29 13:25 50.76128 -1.42518 23174 ft 315 kts 92°
2026-04-29 13:25 50.76168 -1.35607 23180 ft 315 kts 92°
2026-04-29 13:25 50.76187 -1.32151 23176 ft 315 kts 93°
2026-04-29 13:26 50.76204 -1.28667 23170 ft 315 kts 92°
2026-04-29 13:26 50.76223 -1.25153 23180 ft 314 kts 92°
2026-04-29 13:26 50.76530 -1.21699 23066 ft 321 kts 79°
2026-04-29 13:26 50.77171 -1.18323 22667 ft 323 kts 76°
2026-04-29 13:27 50.77861 -1.14857 22185 ft 326 kts 76°
2026-04-29 13:27 50.78540 -1.11444 21693 ft 326 kts 76°
2026-04-29 13:27 50.79214 -1.08040 21205 ft 324 kts 76°
2026-04-29 13:27 50.79876 -1.04673 20716 ft 320 kts 76°
2026-04-29 13:28 50.80529 -1.01330 20237 ft 316 kts 77°
2026-04-29 13:28 50.81172 -0.98026 19754 ft 312 kts 77°
2026-04-29 13:28 50.81829 -0.94791 19333 ft 309 kts 73°
2026-04-29 13:28 50.82964 -0.91927 19159 ft 303 kts 56°
2026-04-29 13:29 50.84294 -0.89445 19043 ft 293 kts 54°
2026-04-29 13:29 50.85619 -0.86979 18965 ft 292 kts 55°
2026-04-29 13:29 50.86930 -0.84527 18882 ft 293 kts 54°
2026-04-29 13:29 50.88246 -0.82064 18799 ft 293 kts 55°
2026-04-29 13:30 50.89565 -0.79592 18738 ft 293 kts 54°
2026-04-29 13:30 50.90873 -0.77137 18675 ft 294 kts 55°
2026-04-29 13:30 50.92199 -0.74642 18598 ft 294 kts 55°
2026-04-29 13:30 50.93523 -0.72149 18499 ft 294 kts 55°
2026-04-29 13:31 50.94837 -0.69673 18439 ft 294 kts 55°
2026-04-29 13:31 50.96154 -0.67186 18355 ft 295 kts 55°
2026-04-29 13:31 50.97473 -0.64692 18282 ft 296 kts 55°
2026-04-29 13:31 50.98784 -0.62210 18227 ft 296 kts 55°
2026-04-29 13:32 51.00124 -0.59674 18138 ft 297 kts 55°
2026-04-29 13:32 51.01449 -0.57162 18063 ft 297 kts 55°
2026-04-29 13:32 51.02771 -0.54657 17989 ft 296 kts 55°
2026-04-29 13:32 51.04098 -0.52138 17931 ft 296 kts 55°
2026-04-29 13:33 51.05415 -0.49637 17838 ft 296 kts 54°
2026-04-29 13:33 51.06736 -0.47123 17763 ft 296 kts 55°
2026-04-29 13:33 51.08060 -0.44601 17693 ft 296 kts 54°
2026-04-29 13:33 51.09375 -0.42097 17625 ft 296 kts 55°
2026-04-29 13:34 51.10699 -0.39571 17543 ft 295 kts 54°
2026-04-29 13:34 51.11995 -0.37091 17465 ft 292 kts 55°
2026-04-29 13:34 51.12991 -0.34360 17317 ft 283 kts 77°
2026-04-29 13:34 51.12974 -0.31333 17022 ft 281 kts 107°
2026-04-29 13:35 51.12184 -0.28471 16733 ft 287 kts 113°
2026-04-29 13:35 51.11851 -0.25334 16392 ft 292 kts 87°
2026-04-29 13:35 51.12480 -0.22286 16159 ft 295 kts 69°
2026-04-29 13:35 51.13367 -0.19350 15961 ft 293 kts 68°
2026-04-29 13:36 51.14274 -0.16414 15763 ft 291 kts 68°
2026-04-29 13:36 51.15163 -0.13546 15563 ft 290 kts 68°
2026-04-29 13:36 51.16064 -0.10647 15367 ft 289 kts 68°
2026-04-29 13:36 51.16949 -0.07798 15176 ft 289 kts 68°
2026-04-29 13:37 51.17841 -0.04930 14979 ft 288 kts 67°
2026-04-29 13:37 51.18737 -0.02049 14784 ft 288 kts 67°
2026-04-29 13:37 51.19618 0.00785 14592 ft 287 kts 67°
2026-04-29 13:37 51.20502 0.03635 14388 ft 287 kts 67°
2026-04-29 13:38 51.21385 0.06481 14193 ft 287 kts 67°
2026-04-29 13:38 51.22266 0.09326 14003 ft 286 kts 67°
2026-04-29 13:38 51.23148 0.12173 13809 ft 286 kts 67°
2026-04-29 13:38 51.24020 0.14994 13615 ft 285 kts 67°
2026-04-29 13:39 51.24905 0.17861 13423 ft 285 kts 67°
2026-04-29 13:39 51.25769 0.20663 13229 ft 284 kts 67°
2026-04-29 13:39 51.26645 0.23507 13026 ft 284 kts 67°
2026-04-29 13:39 51.27511 0.26319 12837 ft 283 kts 67°
2026-04-29 13:40 51.28370 0.29113 12645 ft 282 kts 67°
2026-04-29 13:40 51.29233 0.31924 12448 ft 282 kts 67°
2026-04-29 13:40 51.30099 0.34749 12311 ft 279 kts 67°
2026-04-29 13:40 51.30942 0.37498 12268 ft 276 kts 67°
2026-04-29 13:41 51.31783 0.40247 12259 ft 274 kts 67°
2026-04-29 13:41 51.32613 0.42965 12248 ft 273 kts 67°
2026-04-29 13:41 51.33435 0.45660 12256 ft 271 kts 67°
2026-04-29 13:41 51.34263 0.48377 12257 ft 270 kts 67°
2026-04-29 13:42 51.35083 0.51071 12253 ft 270 kts 67°
2026-04-29 13:42 51.35908 0.53790 11973 ft 279 kts 67°
2026-04-29 13:42 51.36779 0.56667 11459 ft 288 kts 67°
2026-04-29 13:42 51.37653 0.59549 10978 ft 288 kts 66°
2026-04-29 13:43 51.38515 0.62366 10535 ft 276 kts 66°
2026-04-29 13:43 51.39318 0.64992 10118 ft 265 kts 66°
2026-04-29 13:43 51.40124 0.67636 9698 ft 253 kts 67°
2026-04-29 13:43 51.40881 0.70127 9320 ft 243 kts 68°
2026-04-29 13:44 51.41600 0.72494 8950 ft 234 kts 68°
2026-04-29 13:44 51.42297 0.74794 8603 ft 225 kts 68°
2026-04-29 13:44 51.42963 0.77005 8266 ft 222 kts 68°
2026-04-29 13:44 51.43658 0.79226 7948 ft 225 kts 62°
2026-04-29 13:45 51.44853 0.80823 7624 ft 228 kts 25°
2026-04-29 13:45 51.46414 0.80781 7304 ft 234 kts 345°
2026-04-29 13:45 51.47643 0.79104 6973 ft 236 kts 302°
2026-04-29 13:45 51.48057 0.76576 6561 ft 240 kts 276°
2026-04-29 13:46 51.48183 0.73861 6196 ft 244 kts 274°
2026-04-29 13:46 51.48283 0.71185 6059 ft 241 kts 274°
2026-04-29 13:46 51.48382 0.68512 6007 ft 239 kts 274°
2026-04-29 13:46 51.48484 0.65789 5993 ft 247 kts 274°
2026-04-29 13:47 51.48588 0.62999 5986 ft 255 kts 274°
2026-04-29 13:47 51.48694 0.60120 5984 ft 263 kts 274°
2026-04-29 13:47 51.48802 0.57155 5979 ft 268 kts 274°
2026-04-29 13:47 51.48909 0.54180 5973 ft 271 kts 274°
2026-04-29 13:48 51.49017 0.51146 5969 ft 273 kts 274°
2026-04-29 13:48 51.49095 0.48088 5959 ft 274 kts 268°
2026-04-29 13:48 51.48597 0.45259 5967 ft 259 kts 239°
2026-04-29 13:48 51.47718 0.42813 5955 ft 245 kts 235°
2026-04-29 13:49 51.46876 0.40532 5948 ft 230 kts 235°
2026-04-29 13:49 51.46068 0.38347 5956 ft 228 kts 235°
2026-04-29 13:49 51.45254 0.36148 5956 ft 229 kts 235°
2026-04-29 13:49 51.44447 0.33968 5956 ft 230 kts 234°
2026-04-29 13:50 51.43634 0.31766 5917 ft 230 kts 234°
2026-04-29 13:50 51.43067 0.29396 5472 ft 234 kts 263°
2026-04-29 13:50 51.43082 0.26810 4987 ft 233 kts 273°
2026-04-29 13:50 51.43180 0.24215 4487 ft 233 kts 274°
2026-04-29 13:51 51.43277 0.21669 4173 ft 227 kts 274°
2026-04-29 13:51 51.43373 0.19174 4044 ft 221 kts 274°
2026-04-29 13:51 51.43464 0.16716 3824 ft 219 kts 274°
2026-04-29 13:51 51.43550 0.14272 3516 ft 223 kts 274°
2026-04-29 13:52 51.43637 0.11766 3198 ft 227 kts 274°
2026-04-29 13:52 51.43720 0.09304 2884 ft 223 kts 275°
2026-04-29 13:52 51.43803 0.06778 2560 ft 222 kts 273°
2026-04-29 13:52 51.43883 0.04333 2273 ft 221 kts 274°
2026-04-29 13:53 51.43958 0.01940 2078 ft 209 kts 274°
2026-04-29 13:53 51.44032 -0.00344 2016 ft 207 kts 278°
2026-04-29 13:53 51.44117 -0.02657 1983 ft 215 kts 275°
2026-04-29 13:53 51.44203 -0.05118 1962 ft 225 kts 274°
2026-04-29 13:54 51.44307 -0.07666 1959 ft 231 kts 280°
2026-04-29 13:54 51.44931 -0.09855 1935 ft 211 kts 323°
2026-04-29 13:54 51.46116 -0.10818 1955 ft 175 kts 353°
2026-04-29 13:54 51.47204 -0.11317 1959 ft 154 kts 355°
2026-04-29 13:55 51.48225 -0.11726 1981 ft 144 kts
2026-04-29 13:55 51.49097 -0.11489 1954 ft 115 kts 44°
2026-04-29 13:55 51.49605 -0.10564 1954 ft 111 kts 55°
2026-04-29 13:55 51.50133 -0.09692 1957 ft 113 kts 56°
2026-04-29 13:56 51.50682 -0.08780 1963 ft 115 kts 58°
2026-04-29 13:56 51.51037 -0.07651 1956 ft 111 kts 78°
2026-04-29 13:56 51.51067 -0.06460 1957 ft 108 kts 92°
2026-04-29 13:56 51.50942 -0.05274 1949 ft 106 kts 92°
2026-04-29 13:57 51.50816 -0.04117 1867 ft 108 kts 91°
2026-04-29 13:57 51.50740 -0.02911 1764 ft 111 kts 89°
2026-04-29 13:57 51.50718 -0.01679 1476 ft 115 kts 85°
2026-04-29 13:57 51.50703 -0.00396 1099 ft 117 kts 86°
2026-04-29 13:58 51.50680 0.00875 780 ft 110 kts 90°
2026-04-29 13:58 51.50619 0.02088 627 ft 108 kts 92°
2026-04-29 13:58 51.50591 0.03278 327 ft 108 kts 87°
2026-04-29 13:58 51.50553 0.04519 51 ft 116 kts 90°
2026-04-29 13:59 51.50527 0.05607 24 ft 69 kts 90°